星链-5364 (STARLINK-5364 )

导读

STARLINK-5364是美国SpaceX公司星链星座中的一颗低轨通信卫星,于2023年2月2日发射升空,作为星链计划的组成部分运行在近地轨道。它依托星链星座架构,为全球提供低延迟高速互联网接入服务,可覆盖偏远区域,同时支持商业航运、航空通信,也存在潜在军事应用价值,是星链巨型星座组网进程中的一颗现役卫星。

Basic Information
目录编号:
55491
目录名称:
STARLINK-5364
国际标识:
2023-015AU
轨道中心:
EARTH
卫星名称:
星链-5364
卫星全名:
星链-5364 (STARLINK-5364 )
卫星状态:
在轨 (已飞行1231 天)
发射日期:
2023-02-02 UTC
国别 :
美国 (US)
星等 :
--
Orbit Information
数据来源 国际轨道数据 AOE轨道数据
星历时间 2026-06-17T11:10:48+0800
7小时前
查看轨道信息
2026-06-15T06:00:00+0800
2天前
查看轨道信息
半长轴 6861.184km 6861.129km
偏心率 0.0001425 0.0001682
轨道倾角 42.998° 43.003°
近地点辐角 257.431° 232.131°
升交点赤经 119.799° 132.315°
平近点角 102.639° 168.183°
近地点 482.069km 481.837km
远地点 484.025km 484.147km
周期 94.267分钟 94.266分钟
每日圈数 15.275807 15.275992
Detailed Information
固有亮度:
5
最大亮度:
2.5
卫星平台:
Starlink v1.5
覆盖范围:
全球
运营商:
太空探索技术公司
运营商所在国:
美国
制造商(研发单位):
太空探索技术公司
制造商所在国:
美国
使用方式:
暂无
Satellite Introduction
星链(Starlink)计划是由太空探索技术公司(SpaceX)提出的一个巨型低轨卫星互联网星座项目,计划在2019年至2024年间在太空搭建由约1.2万颗卫星组成的“星链”网络,其中1584颗将部署在地球上空550千米处的近地轨道,并从2020年开始工作。该卫星仍在工作。
2D Orbit Map
3D Orbit Map
Orbit Altitude Analysis Chart
Orbit Inclination Analysis Chart
Orbit Comprehensive Analysis Chart
View Comprehensive Chart